カタログに戻る

STARLINK-32526

運用中通信VLEO
NORAD 62162·PAYLOAD·🇺🇸 United States

打ち上げ Nov 30, 2024 から Cape Canaveral Space Force Station

Loading…

次のパス (今後24時間)

TLE

最新Source: CelesTrak SupGP

元期: Sep 14, 2026, 21:09 UTC

1 62162C 24224Z   26257.88173611 -.00024163  00000+0 -87508-3 0  2573
2 62162  43.0010 173.0653 0001305 263.6397 144.9643 15.27594784    11

AllMySatでSTARLINK-32526をリアルタイム追跡

Download on the App Store